Location: Marcé
(47.5801°N, 0.3280°W)
Time: 09:35:10
(UTC+01:00)

Explorer 7 - Pass Details

Date: 01 December 2021
Orbit: 483 x 674 km, 50.3° (Epoch: 24 January)

Event Time Altitude Azimuth Distance (km) Brightness Sun altitude
Rises 11:02:53 0° 281° (W) 2,673 10.0 16.5°
Reaches altitude 10° 11:05:11 10° 285° (WNW) 1,754 9.1 16.6°
Maximum altitude 11:09:05 58° 5° (N) 591 6.9 16.9°
Drops below altitude 10° 11:12:50 10° 86° (E) 1,682 9.6 17.2°
Sets 11:15:00 0° 91° (E) 2,551 10.5 17.3°
